Weather History for KPOF - May, 2014

Change the Weather History Date:

Saturday, May 24, 2014

  Actual Average Record
Temperature  
Mean Temperature 75 °F -  
Max Temperature 84 °F 81 °F 95 °F (1926)
Min Temperature 66 °F 58 °F 35 °F (1925)
Cooling Degree Days 10    
Growing Degree Days 25 (Base 50)    
Moisture  
Dew Point 59 °F    
Average Humidity 58    
Maximum Humidity 73    
Minimum Humidity 43    
Precipitation  
Precipitation 0.00 in - - ()
Sea Level Pressure  
Sea Level Pressure 30.05 in    
Wind  
Wind Speed 6 mph (NE)    
Max Wind Speed 10 mph    
Max Gust Speed 17 mph    
Visibility 10 miles    
Events      
Averages and records for this station are not official NWS values.
T = Trace of Precipitation, MM = Missing Value Source: NWS Daily Summary

Daily Weather History Graph

Daily Weather History Graph

Search for Another Location

Airport or City:

Trip Planner

Search our weather history database for the weather conditions in past years. The results will help you decide how hot, cold, wet, or windy it might be!

Date:

Astronomy

May. 24, 2014 Rise Set
Actual Time 5:47 AM CDT 8:09 PM CDT
Civil Twilight 5:17 AM CDT 8:38 PM CDT
Nautical Twilight 4:41 AM CDT 9:15 PM CDT
Astronomical Twilight 4:01 AM CDT 9:55 PM CDT
Moon 3:09 AM CDT (5/24) 4:12 PM CDT (5/24)
Length of Visible Light 15h 20m
Length of Day
14h 21m
Waning Crescent, 18% of the Moon is Illuminated
May 24
Waning Crescent
May 28
New
Jun 5
First Quarter
Jun 12
Full
Jun 19
Last Quarter

Hourly Weather History & Observations

Time (CDT) Temp. Heat Index Dew Point Humidity Pressure Visibility Wind Dir Wind Speed Gust Speed Precip Events Conditions
12:53 AM 71.1 °F - 59.0 °F 66% 30.05 in 10.0 mi NE 4.6 mph - N/A   Scattered Clouds
1:53 AM 70.0 °F - 60.1 °F 71% 30.04 in 10.0 mi NE 3.5 mph - N/A   Scattered Clouds
2:53 AM 70.0 °F - 59.0 °F 68% 30.04 in 10.0 mi NNE 3.5 mph - N/A   Mostly Cloudy
3:53 AM 68.0 °F - 59.0 °F 73% 30.04 in 10.0 mi NE 5.8 mph - N/A   Scattered Clouds
4:53 AM 68.0 °F - 57.9 °F 70% 30.06 in 10.0 mi NE 6.9 mph - N/A   Clear
5:53 AM 66.9 °F - 57.0 °F 70% 30.07 in 10.0 mi NE 5.8 mph - N/A   Clear
6:53 AM 66.9 °F - 57.0 °F 70% 30.09 in 10.0 mi NE 4.6 mph - N/A   Clear
7:53 AM 68.0 °F - 57.0 °F 68% 30.10 in 10.0 mi NE 4.6 mph - N/A   Clear
8:53 AM 73.0 °F - 57.0 °F 57% 30.11 in 10.0 mi East 6.9 mph - N/A   Clear
9:53 AM 75.9 °F - 57.9 °F 54% 30.09 in 10.0 mi East 10.4 mph 17.3 mph N/A   Clear
10:53 AM 77.0 °F - 57.0 °F 50% 30.10 in 10.0 mi East 9.2 mph - N/A   Overcast
11:53 AM 79.0 °F - 57.0 °F 47% 30.09 in 10.0 mi East 10.4 mph - N/A   Mostly Cloudy
12:53 PM 82.0 °F 82.1 °F 59.0 °F 45% 30.07 in 10.0 mi ENE 10.4 mph - N/A   Scattered Clouds
1:53 PM 82.9 °F 83.2 °F 60.1 °F 46% 30.05 in 10.0 mi ENE 10.4 mph - N/A   Partly Cloudy
2:53 PM 84.9 °F 85.0 °F 61.0 °F 44% 30.03 in 10.0 mi ENE 8.1 mph - N/A   Clear
3:53 PM 84.9 °F 84.8 °F 60.1 °F 43% 30.01 in 10.0 mi ESE 6.9 mph - N/A   Clear
4:53 PM 84.9 °F 85.0 °F 61.0 °F 44% 30.00 in 10.0 mi NE 8.1 mph - N/A   Clear
5:53 PM 82.0 °F 82.4 °F 60.1 °F 47% 30.00 in 10.0 mi NNE 9.2 mph - N/A   Scattered Clouds
6:53 PM 80.1 °F 80.9 °F 60.1 °F 50% 30.00 in 10.0 mi NE 6.9 mph - N/A   Clear
7:53 PM 78.1 °F - 59.0 °F 52% 30.01 in 10.0 mi NE 8.1 mph - N/A   Clear
8:53 PM 75.9 °F - 60.1 °F 58% 30.01 in 10.0 mi NE 5.8 mph - N/A   Clear
10:53 PM 73.0 °F - 62.1 °F 68% 30.05 in 10.0 mi North 4.6 mph - N/A   Clear
11:53 PM 73.0 °F - 61.0 °F 66% 30.04 in 10.0 mi ENE 3.5 mph - N/A   Clear